Weather Service Report


689 
ASUS45 KABQ 270110
RWRNM 
WEATHER ROUNDUP FOR NEW MEXICO
NATIONAL WEATHER SERVICE ALBUQUERQUE NM
600 PM MST MON JAN 26 2015

NOTE: "FAIR" MEANS FEW OR NO CLOUDS BELOW 12,000 FEET AGL WITH NO
       SIGNIFICANT WEATHER OR OBSTRUCTIONS TO VISION.

      THIS PRODUCT IS RELEASED AS TWO VERSIONS.  ONE VERSION NEAR
      THE TOP OF THE HOUR CONTAINING PRELIMINARY DATA FROM ALBUQUERQUE
      AND OTHER STATIONS.  A FINAL VERSION WITH ADDITIONAL DATA IS 
      ISSUED ABOUT 10 MINUTES AFTER THE HOUR.
 
NMZ501-503-504-510>518-270200-
NORTHWEST PLATEAU/NORTHCENTRAL MOUNTAINS
  
CITY           SKY/WX    TMP DP  RH WIND       PRES   REMARKS
FARMINGTON     CLEAR     47  24  40 NE3       30.30R                  
LOS ALAMOS     MOCLDY    49  24  36 S7        30.39S                  
SANTA FE       CLOUDY    49  25  39 CALM      30.35R                  
TAOS           CLEAR     39  23  52 CALM      30.38R                  
ANGEL FIRE     FAIR      36  24  63 W5        30.43R WCI  32          

$$
NMZ402-403-502-505>509-270200-
WESTCENTRAL MOUNTAINS/SOUTHWEST MOUNTAINS
  
CITY           SKY/WX    TMP DP  RH WIND       PRES   REMARKS
GALLUP         PTCLDY    46  26  45 NE8       30.31R                  
GRANTS         MOCLDY    43  27  53 CALM      30.35S                  
SILVER CITY    CLOUDY    50  27  40 SE7       30.31S                  

$$
NMZ407-409-411-412-270200-
SOUTHERN DESERTS
  
CITY           SKY/WX    TMP DP  RH WIND       PRES   REMARKS
LORDSBURG      MOCLDY    54  28  37 SE15      30.23F                  
DEMING         CLOUDY    51  30  44 E6        30.27S                  
LAS CRUCES     CLOUDY    50  33  52 CALM      30.29S                  
HOLLOMAN AFB   MOCLDY    45  32  61 W3        30.27S                  
ALAMOGORDO     MOCLDY    48  32  53 NW3       30.29S                  
T OR C         CLOUDY    54  26  34 NE3       30.29R                  

$$
NMZ519>523-270200-
CENTRAL VALLEYS/CENTRAL HIGHLANDS
  
CITY           SKY/WX    TMP DP  RH WIND       PRES   REMARKS
ALBUQUERQUE    PTCLDY    53  26  35 NE5       30.32S                  
DOUBLE EAGLE   PTCLDY    50  25  37 CALM      30.34S                  
MORIARTY ARPT  FAIR      46  26  46 SE8       30.36R                  
CLINES CORNERS MOCLDY    42  27  55 S9        30.37R                  
BELEN          FAIR      41  29  60 CALM      30.32R                  
SOCORRO        FAIR      46  28  51 CALM      30.30S                  

$$
NMZ524>526-539-540-270200-
SOUTHCENTRAL MOUNTAINS
  
CITY           SKY/WX    TMP DP  RH WIND       PRES   REMARKS
RUIDOSO        MOCLDY    46  18  31 W6        30.39R                  

$$
NMZ527>531-270200-
NORTHEAST HIGHLANDS/NORTHEAST PLAINS
  
CITY           SKY/WX    TMP DP  RH WIND       PRES   REMARKS
LAS VEGAS      MOCLDY    41  27  57 S9        30.37R                  
RATON          CLEAR     43  33  68 W6        30.33R                  
CLAYTON        CLEAR     47  31  53 W5        30.26R                  

$$
NMZ532>537-270200-
EASTCENTRAL PLAINS
  
CITY           SKY/WX    TMP DP  RH WIND       PRES   REMARKS
TUCUMCARI      MOCLDY    55  36  48 SW6       30.25R                  
CANNON AFB     MOCLDY    51  36  56 N8        30.26R                  
CLOVIS AIRPORT MOCLDY    46  37  71 N10       30.26R                  

$$
NMZ028-029-538-270200-
SOUTHEAST PLAINS
  
CITY           SKY/WX    TMP DP  RH WIND       PRES   REMARKS
ROSWELL        MOCLDY    51  37  58 SW7       30.26R                  
ARTESIA        MOCLDY    48  37  66 W6        30.27R                  
CARLSBAD       MOCLDY    47  35  63 SW9       30.24R                  
HOBBS          CLEAR     52  28  40 SW7       30.25R                  


$$

Return to Home page


Western Regional Climate Center, wrcc@dri.edu